Weather History for Parkersburg, WV

Change the Weather History Date:

Monday, February 13, 2012

  Actual Average Record
Temperature  
Mean Temperature 28 °F 34 °F  
Max Temperature 37 °F 43 °F 72 °F (1990)
Min Temperature 19 °F 25 °F -8 °F (1899)
Degree Days  
Heating Degree Days 37 31  
Month to date heating degree days 396 413  
Since 1 July heating degree days 2939 3358  
Cooling Degree Days 0 0  
Month to date cooling degree days 0 0  
Year to date cooling degree days 0 0  
Moisture  
Dew Point 16 °F    
Average Humidity 60    
Maximum Humidity 77    
Minimum Humidity 43    
Precipitation  
Precipitation 0.00 in 0.09 in 2.23 in (1966)
Month to date precipitation 0.41 1.24  
Year to date precipitation 4.62 4.19  
Sea Level Pressure  
Sea Level Pressure 30.23 in    
Wind  
Wind Speed 5 mph (SSW)    
Max Wind Speed 14 mph    
Max Gust Speed 21 mph    
Visibility 10 miles    
Events      
T = Trace of Precipitation, MM = Missing Value Source: NWS Daily Summary

Daily Weather History Graph

Daily Weather History Graph

Search for Another Location

Airport:

Trip Planner

Search our weather history database for the weather conditions in past years. The results will help you decide how hot, cold, wet, or windy it might be!

Date:

Astronomy

Feb. 13, 2012 Rise Set
Actual Time 7:20 AM EST 5:59 PM EST
Civil Twilight 6:53 AM EST 6:27 PM EST
Nautical Twilight 6:21 AM EST 6:58 PM EST
Astronomical Twilight 5:50 AM EST 7:30 PM EST
Moon No Moon Rise 10:21 AM EST (2/13)
Length of Visible Light 11h 34m
Length of Day
10h 39m
Waning Gibbous, 62% of the Moon is Illuminated
Feb 13
Waning Gibbous
Feb 14
Last Quarter
Feb 21
New
Feb 29
First Quarter
Mar 8
Full

Hourly Weather History & Observations

Time (EST) Temp. Windchill Dew Point Humidity Pressure Visibility Wind Dir Wind Speed Gust Speed Precip Events Conditions
12:53 AM 24.1 °F 17.0 °F 14.0 °F 65% 30.29 in 10.0 mi SW 5.8 mph - N/A   Clear
1:53 AM 23.0 °F 15.8 °F 14.0 °F 68% 30.28 in 10.0 mi SW 5.8 mph - N/A   Clear
2:53 AM 23.0 °F 15.8 °F 14.0 °F 68% 30.28 in 10.0 mi SW 5.8 mph - N/A   Clear
3:53 AM 23.0 °F 17.0 °F 15.1 °F 72% 30.29 in 10.0 mi SW 4.6 mph - N/A   Clear
4:53 AM 21.9 °F 15.7 °F 15.1 °F 75% 30.29 in 10.0 mi SSW 4.6 mph - N/A   Clear
5:53 AM 19.9 °F 13.4 °F 14.0 °F 78% 30.29 in 10.0 mi SSW 4.6 mph - N/A   Clear
6:53 AM 19.9 °F 14.9 °F 14.0 °F 78% 30.30 in 10.0 mi South 3.5 mph - N/A   Clear
7:53 AM 21.0 °F 13.4 °F 15.1 °F 78% 30.31 in 10.0 mi SSW 5.8 mph - N/A   Clear
8:53 AM 24.1 °F 18.2 °F 17.1 °F 75% 30.32 in 10.0 mi SSW 4.6 mph - N/A   Clear
9:53 AM 28.0 °F 18.6 °F 16.0 °F 61% 30.31 in 10.0 mi SSW 10.4 mph - N/A   Clear
10:53 AM 30.0 °F 24.1 °F 17.1 °F 59% 30.31 in 10.0 mi SSW 5.8 mph - N/A   Clear
11:53 AM 32.0 °F 24.2 °F 15.1 °F 50% 30.30 in 10.0 mi South 9.2 mph - N/A   Clear
12:53 PM 34.0 °F 27.2 °F 14.0 °F 44% 30.25 in 10.0 mi West 8.1 mph - N/A   Clear
1:53 PM 34.0 °F 28.0 °F 14.0 °F 44% 30.22 in 10.0 mi Variable 6.9 mph - N/A   Scattered Clouds
2:53 PM 35.1 °F 29.3 °F 15.1 °F 44% 30.22 in 10.0 mi SW 6.9 mph - N/A   Mostly Cloudy
3:53 PM 36.0 °F 31.1 °F 15.1 °F 43% 30.20 in 10.0 mi SSW 5.8 mph - N/A   Mostly Cloudy
4:53 PM 37.0 °F 32.4 °F 18.0 °F 46% 30.18 in 10.0 mi South 5.8 mph - N/A   Partly Cloudy
5:53 PM 35.1 °F - 16.0 °F 46% 30.17 in 10.0 mi Calm Calm - N/A   Mostly Cloudy
6:53 PM 33.1 °F 30.0 °F 16.0 °F 50% 30.14 in 10.0 mi ESE 3.5 mph - N/A   Overcast
7:53 PM 32.0 °F - 18.0 °F 56% 30.14 in 10.0 mi Calm Calm - N/A   Overcast
8:53 PM 30.9 °F - 21.0 °F 67% 30.14 in 10.0 mi Calm Calm - N/A   Overcast
9:53 PM 30.9 °F 27.5 °F 21.0 °F 67% 30.14 in 10.0 mi SSE 3.5 mph - N/A   Overcast
10:53 PM 33.1 °F 28.7 °F 19.0 °F 56% 30.11 in 10.0 mi East 4.6 mph - N/A   Overcast
11:53 PM 32.0 °F - 21.0 °F 64% 30.08 in 10.0 mi Calm Calm - N/A   Overcast